www.pogodaiklimat.ru

Погода и климат >> Архив погоды >> Таджикистан >> Пархар


ПОГОДА в Пархаре

  • Прогноз погоды в Пархаре
  • Монитор погоды в Пархаре

АРХИВ ПОГОДЫ в Пархаре

Время (UTC), дата Ветер
(напр.,м/с)
 
Видим.   Явления Облачность Т
(С)
Тd
(С)
f
(%)
Тe
(С)
Тes
(С)
Комфортность P
(гПа)
Po
(гПа)
Тmin
(С)
Tmax
(С)
R
(мм)
R24
(мм)
S
(см)
00 12.06 С 2 10 км ясно +16.9 +7.3 53 +17 +17 1008.7 957.3
03 12.06 С 2 10 км ясно +21.1 +6.5 39 +22 +28 комфорт 1009.2 958.5 +16.7
06 12.06 Ю 1 10 км ясно +26.7 +7.7 30 +27 +49 жарко 1006.8 957.1 +16.7
09 12.06 Ю 1 10 км 3/0
[Ac trans]
+28.3 +3.4 20 +27 +44 жарко 1005.3 955.9
12 12.06 ЮВ 1 10 км ясно +29.1 +1.1 16 +27 +33 жарко 1004.7 955.5
15 12.06 штиль 0 10 км ясно +26.5 +5.0 25 +26 +26 жарко 1004.0 954.5 +30.2
18 12.06 В 1 н/о ясно +22.4 +5.5 33 +23 +23 комфорт 1005.0 954.7 +30.2
21 12.06 С 2 н/о ясно +19.4 +8.5 49 +21 +21 комфорт 1004.5 953.8
00 13.06 С 2 20 км ясно +18.1 +8.6 54 +19 +19 1003.7 952.8
03 13.06 С 1 20 км ясно +21.2 +12.2 56 +23 +31 комфорт 1003.4 953.1 +16.8
06 13.06 СВ 1 20 км ясно +28.7 +9.9 31 +29 +51 опасность
солнечного
удара
1000.8 951.8 +16.8
09 13.06 Ю 1 20 км ясно +32.3 +3.0 16 +30 +51 опасность
солнечного
удара
998.7 950.2
12 13.06 штиль 0 20 км ясно +32.6 +4.1 17 +30 +38 жарко 996.8 948.5
15 13.06 штиль 0 20 км ясно +29.9 +7.8 25 +29 +29 жарко 997.2 948.5 +33.7
18 13.06 СВ 1 н/о ясно +23.4 +9.9 42 +25 +25 комфорт 998.5 948.8 +33.7
21 13.06 С 1 н/о 3/0
[Ac trans]
+21.0 +8.2 44 +23 +23 комфорт 998.8 948.6
00 14.06 С 2 20 км 3/0
[Ci fib]
+19.4 +8.5 49 +21 +21 комфорт 999.2 948.8
03 14.06 В 1 20 км 3/0
[Ci fib]
+24.8 +11.4 43 +26 +33 жарко 999.7 950.1 +17.5
06 14.06 ЮВ 2 20 км 5/0
[Ac trans Ci fib]
+29.5 +12.1 34 +30 +45 жарко 999.2 950.4 +17.5
09 14.06 ЮВ 1 20 км 8/3 1000 м
[Sc Ac trans]
+33.4 +8.0 21 +32 +41 жарко 997.1 949.0
12 14.06 Ю 1 20 км 3/0
[Ci fib]
+33.8 +7.8 20 +32 +38 жарко 995.9 947.9
15 14.06 штиль 0 10 км ясно +29.9 +9.9 29 +30 +30 жарко 997.4 948.7 +35.5
18 14.06 С 2 н/о 3/0
[Ac trans]
+25.7 +8.0 32 +26 +26 жарко 999.1 949.7 +35.5
21 14.06 С 3 н/о ясно +22.5 +9.3 43 +24 +24 комфорт 999.6 949.7
00 15.06 С 3 20 км ясно +21.1 +7.3 41 +22 +22 комфорт 1000.7 950.4
03 15.06 С 2 20 км ясно +25.4 +9.7 37 +26 +33 жарко 1000.7 951.2 +20.9
06 15.06 В 1 20 км ясно +30.6 +10.9 30 +31 +53 опасность
солнечного
удара
999.7 951.0 +20.9
09 15.06 Ю 3 20 км 3/0
[Ac trans]
+35.6 +6.4 17 +33 +46 жарко 998.6 950.8
12 15.06 З 1 20 км 3/0
[Ac trans]
+35.4 +4.8 15 +33 +38 жарко 998.0 950.0
15 15.06 З 2 20 км 3/0
[Ac trans]
+30.5 +5.5 21 +29 +29 жарко 999.1 950.5 +36.7
18 15.06 СВ 2 н/о ясно +26.7 +5.6 26 +26 +26 жарко 1001.3 951.9 +36.7
21 15.06 С 1 н/о ясно +22.1 +9.8 46 +24 +24 комфорт 1002.3 952.1
00 16.06 С 2 20 км ясно +21.1 +8.1 43 +22 +22 комфорт 1002.7 952.3
03 16.06 С 1 20 км ясно +25.7 +8.9 35 +26 +34 жарко 1002.9 953.3 +19.6
06 16.06 В 1 20 км ясно +30.6 +11.9 32 +31 +54 опасность
солнечного
удара
1002.1 953.3 +19.6
09 16.06 ЮЗ 1 20 км ясно +34.8 +4.0 15 +32 +53 опасность
солнечного
удара
1000.1 952.0
12 16.06 Ю 1 20 км ясно +35.3 +3.6 14 +32 +39 жарко 999.2 951.1
15 16.06 штиль 0 20 км ясно +31.9 +11.7 29 +32 +32 жарко 998.9 950.6 +36.5
18 16.06 С 2 н/о ясно +26.9 +6.2 27 +26 +26 жарко 1000.1 950.8 +36.5
21 16.06 С 3 н/о ясно +22.9 +8.1 39 +24 +24 комфорт 1000.4 950.5
00 17.06 С 1 20 км ясно +20.9 +8.5 45 +23 +23 комфорт 1000.6 950.3
03 17.06 В 1 20 км ясно +25.5 +8.8 35 +26 +34 жарко 1000.6 951.1 +19.8
06 17.06 ЮВ 2 20 км ясно +31.3 +10.4 28 +31 +50 жарко 999.1 950.6 +19.8
09 17.06 В 1 20 км ясно +35.4 +6.2 16 +33 +54 опасность
солнечного
удара
997.4 959.6
12 17.06 В 2 20 км ясно +36.3 +6.5 16 +34 +39 очень
жарко
995.7 948.1
15 17.06 штиль 0 20 км ясно +31.0 +11.0 29 +31 +31 жарко 996.5 948.2 +37.0
18 17.06 С 2 н/о ясно +27.1 +10.2 35 +28 +28 жарко 997.6 948.6 +37.0
21 17.06 С 3 н/о ясно +24.2 +8.1 36 +25 +25 комфорт 998.1 948.4
00 18.06 С 2 20 км ясно +21.2 +9.7 48 +23 +23 комфорт 998.5 948.5
03 18.06 С 3 20 км ясно +26.1 +9.7 36 +27 +32 жарко 999.2 949.9 +20.1
06 18.06 В 1 20 км ясно +30.6 +11.1 30 +31 +53 опасность
солнечного
удара
998.1 949.5 +20.1
09 18.06 Ю 2 20 км ясно +34.9 +4.1 15 +32 +50 жарко 996.5 948.6
12 18.06 ЮВ 1 20 км ясно +35.8 +6.1 16 +33 +40 жарко 994.9 947.2
15 18.06 штиль 0 20 км ясно +30.6 +9.0 26 +30 +30 жарко 995.7 947.2 +37.0
18 18.06 В 1 н/о ясно +27.3 +10.3 35 +28 +28 жарко 996.6 947.6 +37.0
21 18.06 С 3 н/о ясно +22.2 +7.7 39 +23 +23 комфорт 997.4 947.4

 

Местоположение метеостанции Пархар (Таджикистан): широта 37.48 долгота 69.38 высота над уровнем моря 448 м.

В архиве по умолчанию представлена погода в Пархаре за последнюю неделю. Архивные данные за месяц целиком и за предыдущие месяцы, начиная с января 2011 года, Вы можете получить, выбрав интересующий диапазон дат из раскрывающегося списка и нажав кнопку "Ввод!".


*Определитесь, кто Вы:
робот инопланетянин человек

Внимание! Время в таблицах - всемирное. Для получения местного времени необходимо прибавить поправку, которая равна 5 ч.

Смотрите также архив погоды в соседних городах и на ближайших метеорологических станциях:

Погода в Хамадони (Таджикистан) (31 км)
Погода в Пьяндже (Таджикистан) (38 км)
Погода в Кулябе (Таджикистан) (60 км)
Погода в Курган-Тюбе (Таджикистан) (65 км)
Погода в Дангаре (Таджикистан) (69 км)
Погода в Исанбай (Таджикистан) (84 км)
Погода в Ганжине (Таджикистан) (88 км)
Погода в Кундузе (Афганистан) (99 км)
Погода в Санглоке (Таджикистан) (119 км)
Погода в Душанбе (Таджикистан) (130 км)

Пояснения к столбцам:

Ветер - указаны скорость ветра в м/с - средняя за 10 мин, порывы в срок и между сроками (в фигурных скобках) и направление, откуда дует ветер: С - северный, СВ - северо-восточный, В - восточный, ЮВ - юго-восточный, Ю - южный, ЮЗ - юго-западный, З - западный, СЗ - северо-западный.
Видимость - горизонтальная дальность видимости в метрах или километрах. При видимости от 1 до 10 км при отсутствии осадков обычно наблюдается дымка, при ухудшении видимости до 1 км и менее - туман. В сухую погоду видимость может ухудшаться дымом, пылью или мглою.
Явления - указаны атмосферные явления, наблюдавшиеся в срок или в последний час перед сроком; фигурными скобками обозначены явления, наблюдавшиеся между сроками (за 1-3 часа до срока); квадратными скобками обозначены град или гололедные отложения с указанием их диаметра в мм.
Облачность - указаны через наклонную черту общая и нижняя облачность в баллах и высота нижней границы облаков в метрах; квадратными скобками обозначены формы облаков: Ci - перистые, Cs - перисто-слоистые, Cc - перисто-кучевые, Ac - высококучевые, As - высокослоистые, Sc - слоисто-кучевые, Ns - слоисто-дождевые, Cu - кучевые, Cb - кучево-дождевые. Подробнее классификацию облаков см. в Атласе облаков (PDF).
T - Температура воздуха - температура, измеренная на высоте 2 м над землей.
Td - Температура точки росы - температура, при понижении до которой содержащийся в воздухе водяной пар достигнет насыщения.
f - Относительная влажность воздуха - влажноcть воздуха, измеренная на высоте 2 м над землей.
Te - Эффективная температура - температура, которую ощущает одетый по сезону человек в тени. Характеристика душности погоды. При расчете учитывается влияние влажности воздуха и скорости ветра на теплоощущения человека.
Tes - Эффективная температура на солнце - температура, которую ощущает человек, с поправкой на солнечный нагрев. Характеристика знойности погоды. Зависит от высоты солнца над горизонтом, облачности и скорости ветра. Ночью, в пасмурную погоду, а также при ветре 12 м/с и более поправка равна нулю.
P - Атмосферное давление - приведенное к уровню моря атмосферное давление.
Po - Атмосферное давление - измеренное на уровне метеостанции атмосферное давление.
Tmin - Минимальная температура - минимум температуры воздуха на высоте 2 м над землей.
Tmax - Максимальная температура - максимум температуры воздуха на высоте 2 м над землей.
R - Количество осадков - Количество выпавших осадков за период времени, мм. При наведении курсора мыши на число - период времени, за который выпало указанное количество осадков.
R24 - Количество осадков - Количество выпавших осадков за 24 часа, мм.
S - Снежный покров - Высота снежного покрова, см. При наведении курсора мыши на число - состояние снежного покрова и степень покрытия местности в баллах.